CW8078 Weather Reports


time (UTC)temp
C
wind
direction
speed
KPH
gust
KPH
rain 1hr
cm
rain 24hr
cm
rain mn
cm
humidity
%
barometer
mb
20260504001803 23 0 0.0 0.0 0.00 0.00 0.00 51 1006.8
20260504001303 23 171 0.0 0.0 0.00 0.00 0.00 54 1006.8
20260504000803 24 170 0.0 0.0 0.00 0.00 0.00 47 1006.8
20260504000303 24 170 0.0 0.0 0.00 0.00 0.00 48 1006.9
20260503234803 24 170 0.0 0.0 0.00 0.00 0.00 45 1006.9
20260503234302 24 170 0.0 0.0 0.00 0.00 0.00 44 1007.0
20260503233803 24 130 0.0 0.0 0.00 0.00 0.00 45 1007.0
20260503233303 25 215 0.0 0.0 0.00 0.00 0.00 42 1006.9
20260503231803 25 215 0.0 0.0 0.00 0.00 0.00 42 1006.9
20260503231303 25 213 0.0 0.0 0.00 0.00 0.00 41 1006.8
20260503230802 25 220 0.0 0.0 0.00 0.00 0.00 42 1006.9
20260503224803 26 238 0.0 0.0 0.00 0.00 0.00 40 1007.0
20260503224302 26 212 0.0 0.0 0.00 0.00 0.00 39 1007.0
20260503223802 26 211 0.0 0.0 0.00 0.00 0.00 39 1007.0
20260503223302 26 224 0.0 8.0 0.00 0.00 0.00 40 1007.0
20260503221803 26 175 0.0 8.0 0.00 0.00 0.00 39 1007.1
20260503221302 26 205 0.0 4.8 0.00 0.00 0.00 39 1007.0
20260503220802 26 217 0.0 0.0 0.00 0.00 0.00 38 1007.1
20260503220302 26 204 0.0 9.7 0.00 0.00 0.00 39 1007.1
20260503214803 26 218 0.0 4.8 0.00 0.00 0.00 41 1007.2
20260503214303 26 220 0.0 3.2 0.00 0.00 0.00 40 1007.2
20260503213802 26 214 0.0 3.2 0.00 0.00 0.00 41 1007.2
20260503213302 26 282 0.0 4.8 0.00 0.00 0.00 41 1007.4
20260503211803 26 214 0.0 4.8 0.00 0.00 0.00 39 1007.5
20260503211303 26 199 0.0 8.0 0.00 0.00 0.00 41 1007.6
20260503210803 26 245 1.6 9.7 0.00 0.00 0.00 40 1007.6
20260503210303 26 235 0.0 11.3 0.00 0.00 0.00 39 1007.6
20260503204303 25 220 1.6 11.3 0.00 0.00 0.00 40 1008.0
20260503203803 25 226 0.0 4.8 0.00 0.00 0.00 38 1008.0
20260503203303 26 217 1.6 9.7 0.00 0.00 0.00 40 1008.1
20260503201802 26 195 1.6 11.3 0.00 0.00 0.00 38 1008.3
20260503201303 25 173 0.0 0.0 0.00 0.00 0.00 40 1008.4
20260503200303 25 176 0.0 12.9 0.00 0.00 0.00 37 1008.4
20260503193802 25 203 0.0 1.6 0.00 0.00 0.00 39 1009.0
20260503193302 25 225 0.0 16.1 0.00 0.00 0.00 42 1009.0
20260503191803 25 167 0.0 4.8 0.00 0.00 0.00 39 1009.2
20260503191303 25 202 0.0 1.6 0.00 0.00 0.00 39 1009.2
20260503190803 24 168 3.2 25.7 0.00 0.00 0.00 41 1009.3
20260503190302 24 176 3.2 16.1 0.00 0.00 0.00 40 1009.3
20260503184803 23 165 1.6 12.9 0.00 0.00 0.00 39 1009.9
20260503184302 23 174 1.6 16.1 0.00 0.00 0.00 40 1010.0
20260503183803 23 158 1.6 19.3 0.00 0.00 0.00 40 1010.1
20260503183302 23 169 0.0 27.4 0.00 0.00 0.00 40 1010.2
20260503181803 23 160 3.2 16.1 0.00 0.00 0.00 40 1010.6
20260503181302 23 194 0.0 12.9 0.00 0.00 0.00 43 1010.8
20260503180803 23 169 1.6 20.9 0.00 0.00 0.00 42 1010.9
20260503180303 22 214 0.0 11.3 0.00 0.00 0.00 43 1011.0
20260503174302 22 208 0.0 4.8 0.00 0.00 0.00 42 1011.8
20260503173802 23 195 0.0 3.2 0.00 0.00 0.00 42 1011.9
20260503173303 22 179 0.0 4.8 0.00 0.00 0.00 41 1012.1
20260503171803 21 208 0.0 3.2 0.00 0.00 0.00 45 1012.6
20260503171302 21 163 0.0 4.8 0.00 0.00 0.00 41 1012.6
20260503170803 21 163 0.0 14.5 0.00 0.00 0.00 43 1012.7
20260503150803 16 154 0.0 0.0 0.00 0.00 0.00 51 1014.9
20260503131302 8 167 0.0 0.0 0.00 0.00 0.00 74 1015.8
20260503130803 8 177 0.0 0.0 0.00 0.00 0.00 75 1016.0
20260503130303 8 151 0.0 3.2 0.00 0.00 0.00 75 1015.8
20260503110302 4 327 0.0 0.0 0.00 0.00 0.00 87 1015.5
20260503090303 3 327 0.0 0.0 0.00 0.00 0.00 90 1016.2
20260503081303 4 327 0.0 0.0 0.00 0.00 0.00 89 1016.3
20260503080803 4 327 0.0 0.0 0.00 0.00 0.00 89 1016.3
20260503080303 4 327 0.0 0.0 0.00 0.00 0.00 88 1016.4
20260503070803 5 327 0.0 0.0 0.00 0.00 0.00 88 1016.8
20260503060303 5 327 0.0 0.0 0.00 0.00 0.00 88 1017.2
20260503054803 5 327 0.0 0.0 0.00 0.00 0.00 86 1017.3
20260503053803 5 327 0.0 0.0 0.00 0.00 0.00 87 1017.5
20260503053303 5 327 0.0 0.0 0.00 0.00 0.00 86 1017.5
20260503050803 5 327 0.0 0.0 0.00 0.00 0.00 86 1017.6
20260503050303 5 327 0.0 0.0 0.00 0.00 0.00 86 1017.6
20260503044303 5 327 0.0 0.0 0.00 0.00 0.00 84 1017.6
20260503043803 5 327 0.0 0.0 0.00 0.00 0.00 84 1017.5
20260503043303 6 327 0.0 0.0 0.00 0.00 0.00 84 1017.6
20260503041803 6 327 0.0 0.0 0.00 0.00 0.00 82 1017.6
20260503041303 6 327 0.0 0.0 0.00 0.00 0.00 83 1017.6
20260503040803 6 327 0.0 0.0 0.00 0.00 0.00 83 1017.5
20260503040303 6 327 0.0 0.0 0.00 0.00 0.00 83 1017.5
20260503034803 6 327 0.0 0.0 0.00 0.00 0.00 82 1017.6
20260503034303 6 327 0.0 0.0 0.00 0.00 0.00 82 1017.6
20260503033803 6 327 0.0 0.0 0.00 0.00 0.00 81 1017.6
20260503033303 7 327 0.0 0.0 0.00 0.00 0.00 81 1017.6
20260503031803 7 327 0.0 0.0 0.00 0.00 0.00 79 1017.8
20260503031303 7 327 0.0 0.0 0.00 0.00 0.00 78 1017.8
20260503030303 7 327 0.0 0.0 0.00 0.00 0.00 77 1017.7
20260503024803 7 327 0.0 0.0 0.00 0.00 0.00 76 1017.6
20260503024303 7 327 0.0 0.0 0.00 0.00 0.00 76 1017.7
20260503023803 8 327 0.0 0.0 0.00 0.00 0.00 75 1017.6
20260503021303 8 327 0.0 0.0 0.00 0.00 0.00 70 1017.4
20260503020303 9 327 0.0 0.0 0.00 0.00 0.00 70 1017.3
20260503014803 10 327 0.0 0.0 0.00 0.00 0.00 65 1017.2
20260503013303 11 327 0.0 0.0 0.00 0.00 0.00 60 1017.1
20260503011803 12 327 0.0 0.0 0.00 0.00 0.00 56 1017.0
20260503011303 12 327 0.0 0.0 0.00 0.00 0.00 55 1017.0
20260503010803 12 327 0.0 0.0 0.00 0.00 0.00 55 1017.0
20260503010304 12 327 0.0 0.0 0.00 0.00 0.00 55 1016.9
20260503004803 13 327 0.0 0.0 0.00 0.00 0.00 49 1016.9
20260503004303 13 327 0.0 0.0 0.00 0.00 0.00 48 1017.0
20260503003803 13 327 0.0 0.0 0.00 0.00 0.00 48 1016.9
20260503003303 13 327 0.0 0.0 0.00 0.00 0.00 47 1016.9